Change the Weather History Date:

Friday, July 5, 2013

  Actual Average (KMTC) Record (KMTC)
Temperature  
Mean Temperature 74 °F -  
Max Temperature 80 °F 80 °F 94 °F (1977)
Min Temperature 68 °F 60 °F 48 °F (1979)
Cooling Degree Days 9    
Growing Degree Days 24 (Base 50)    
Moisture  
Dew Point 68 °F    
Average Humidity 87    
Maximum Humidity 100    
Minimum Humidity 61    
Precipitation  
Precipitation 0.00 in - - ()
Sea Level Pressure  
Sea Level Pressure 30.10 in    
Wind  
Wind Speed 1 mph (SSE)    
Max Wind Speed 7 mph    
Max Gust Speed -    
Visibility 7 miles    
Events Rain    
Averages and records for this station are not official NWS values.
T = Trace of Precipitation, MM = Missing Value Source: NWS Daily Summary

Daily Weather History Graph

Daily Weather History Graph

Search for Another Location

Airport or City:

Trip Planner

Search our weather history database for the weather conditions in past years. The results will help you decide how hot, cold, wet, or windy it might be!

Date:

Astronomy

Jul. 05, 2013 Rise Set
Actual Time 5:57 AM EDT 9:11 PM EDT
Civil Twilight 5:22 AM EDT 9:46 PM EDT
Nautical Twilight 4:37 AM EDT 10:31 PM EDT
Astronomical Twilight 3:42 AM EDT 11:25 PM EDT
Moon 3:57 AM EDT 7:04 PM EDT
Length of Visible Light 16h 23m
Length of Day
15h 14m
Waning Crescent, 6% of the Moon is Illuminated
Jul 5
Waning Crescent
Jul 8
New
Jul 15
First Quarter
Jul 22
Full
Jul 29
Last Quarter

Hourly Weather History & Observations

Time (EDT) Temp. Heat Index Dew Point Humidity Pressure Visibility Wind Dir Wind Speed Gust Speed Precip Events Conditions
12:17 AM 69.8 °F - 68.0 °F 94% 30.11 in 10.0 mi Calm Calm - N/A   Overcast
12:37 AM 69.8 °F - 68.0 °F 94% 30.12 in 7.0 mi Calm Calm - N/A   Overcast
12:57 AM 69.8 °F - 68.0 °F 94% 30.12 in 7.0 mi Calm Calm - N/A   Overcast
1:17 AM 69.8 °F - 69.8 °F 100% 30.12 in 7.0 mi South 3.5 mph - N/A   Overcast
1:37 AM 69.8 °F - 69.8 °F 100% 30.12 in 7.0 mi South 3.5 mph - N/A   Overcast
1:57 AM 69.8 °F - 69.8 °F 100% 30.11 in 7.0 mi SSW 3.5 mph - N/A   Overcast
2:17 AM 69.8 °F - 69.8 °F 100% 30.11 in 7.0 mi Calm Calm - N/A   Overcast
2:37 AM 69.8 °F - 69.8 °F 100% 30.11 in 7.0 mi Calm Calm - N/A   Overcast
2:57 AM 69.8 °F - 69.8 °F 100% 30.11 in 7.0 mi Calm Calm - N/A   Overcast
3:17 AM 68.0 °F - 68.0 °F 100% 30.10 in 5.0 mi Calm Calm - N/A   Overcast
3:37 AM 68.0 °F - 68.0 °F 100% 30.10 in 5.0 mi Calm Calm - N/A   Overcast
3:57 AM 68.0 °F - 68.0 °F 100% 30.10 in 4.0 mi Calm Calm - N/A   Overcast
4:17 AM 68.0 °F - 68.0 °F 100% 30.10 in 5.0 mi Calm Calm - N/A   Overcast
4:37 AM 69.8 °F - 69.8 °F 100% 30.10 in 5.0 mi Calm Calm - N/A   Light Drizzle
4:57 AM 69.8 °F - 69.8 °F 100% 30.10 in 4.0 mi Calm Calm - N/A Rain Light Rain
5:17 AM 69.8 °F - 69.8 °F 100% 30.09 in 4.0 mi Calm Calm - N/A Rain Rain
5:37 AM 68.0 °F - 68.0 °F 100% 30.10 in 3.0 mi Calm Calm - N/A Rain Light Rain
5:57 AM 69.8 °F - 69.8 °F 100% 30.09 in 3.0 mi Calm Calm - N/A Rain Light Rain
6:17 AM 68.0 °F - 68.0 °F 100% 30.10 in 1.5 mi Calm Calm - N/A Rain Light Rain
6:37 AM 68.0 °F - 68.0 °F 100% 30.10 in 1.8 mi Calm Calm - N/A Rain Light Rain
6:57 AM 68.0 °F - 68.0 °F 100% 30.10 in 2.5 mi Calm Calm - N/A Rain Light Rain
7:17 AM 68.0 °F - 68.0 °F 100% 30.10 in 2.0 mi Calm Calm - N/A   Light Drizzle
7:37 AM 69.8 °F - 69.8 °F 100% 30.11 in 2.5 mi Calm Calm - N/A   Drizzle
7:57 AM 69.8 °F - 69.8 °F 100% 30.11 in 2.5 mi Calm Calm - N/A   Scattered Clouds
8:17 AM 69.8 °F - 69.8 °F 100% 30.10 in 2.0 mi Calm Calm - N/A   Scattered Clouds
8:37 AM 69.8 °F - 69.8 °F 100% 30.11 in 2.5 mi Calm Calm - N/A Rain Rain
8:57 AM 69.8 °F - 69.8 °F 100% 30.11 in 3.0 mi Calm Calm - N/A Rain Light Rain
9:17 AM 69.8 °F - 68.0 °F 94% 30.11 in 5.0 mi Calm Calm - N/A Rain Light Rain
9:37 AM 69.8 °F - 69.8 °F 100% 30.12 in 4.0 mi Calm Calm - N/A   Light Drizzle
9:57 AM 69.8 °F - 69.8 °F 100% 30.11 in 5.0 mi Calm Calm - N/A Rain Light Rain
10:17 AM 71.6 °F - 69.8 °F 94% 30.11 in 5.0 mi NNW 3.5 mph - N/A   Light Drizzle
10:37 AM 71.6 °F - 69.8 °F 94% 30.11 in 4.0 mi Calm Calm - N/A Rain Light Rain
10:57 AM 71.6 °F - 69.8 °F 94% 30.12 in 5.0 mi Calm Calm - N/A Rain Light Rain
11:17 AM 71.6 °F - 69.8 °F 94% 30.13 in 4.0 mi ENE 3.5 mph - N/A   Mostly Cloudy
11:37 AM 71.6 °F - 68.0 °F 88% 30.13 in 5.0 mi Calm Calm - N/A   Mostly Cloudy
11:57 AM 71.6 °F - 69.8 °F 94% 30.13 in 5.0 mi Calm Calm - N/A   Scattered Clouds
12:17 PM 73.4 °F - 66.2 °F 78% 30.12 in 10.0 mi Calm Calm - N/A   Scattered Clouds
12:37 PM 73.4 °F - 64.4 °F 73% 30.13 in 10.0 mi ENE 4.6 mph - N/A   Clear
12:57 PM 75.2 °F - 64.4 °F 69% 30.13 in 10.0 mi Calm Calm - N/A   Clear
1:17 PM 75.2 °F - 64.4 °F 69% 30.13 in 10.0 mi Calm Calm - N/A   Scattered Clouds
1:37 PM 75.2 °F - 64.4 °F 69% 30.12 in 10.0 mi Calm Calm - N/A   Scattered Clouds
1:57 PM 75.2 °F - 64.4 °F 69% 30.12 in 10.0 mi Calm Calm - N/A   Clear
2:17 PM 77.0 °F - 64.4 °F 65% 30.11 in 10.0 mi Calm Calm - N/A   Clear
2:37 PM 77.0 °F - 64.4 °F 65% 30.11 in 10.0 mi East 4.6 mph - N/A   Clear
2:57 PM 77.0 °F - 64.4 °F 65% 30.11 in 10.0 mi Calm Calm - N/A   Scattered Clouds
3:17 PM 77.0 °F - 64.4 °F 65% 30.11 in 10.0 mi Calm Calm - N/A   Mostly Cloudy
3:37 PM 77.0 °F - 66.2 °F 69% 30.10 in 10.0 mi Calm Calm - N/A   Scattered Clouds
3:57 PM 78.8 °F - 66.2 °F 65% 30.09 in 10.0 mi South 3.5 mph - N/A   Scattered Clouds
4:17 PM 78.8 °F - 66.2 °F 65% 30.09 in 10.0 mi SSE 3.5 mph - N/A   Clear
4:37 PM 78.8 °F - 66.2 °F 65% 30.09 in 10.0 mi ESE 3.5 mph - N/A   Scattered Clouds
4:57 PM 78.8 °F - 68.0 °F 69% 30.09 in 10.0 mi SE 5.8 mph - N/A   Overcast
5:17 PM 78.8 °F - 66.2 °F 65% 30.08 in 10.0 mi ESE 5.8 mph - N/A   Mostly Cloudy
5:37 PM 80.6 °F 82.7 °F 66.2 °F 61% 30.08 in 10.0 mi ESE 4.6 mph - N/A   Mostly Cloudy
5:57 PM 80.6 °F 82.7 °F 66.2 °F 61% 30.07 in 10.0 mi SSE 3.5 mph - N/A   Scattered Clouds
6:17 PM 78.8 °F - 66.2 °F 65% 30.07 in 10.0 mi South 4.6 mph - N/A   Clear
6:37 PM 78.8 °F - 68.0 °F 69% 30.07 in 10.0 mi SSE 5.8 mph - N/A   Clear
6:57 PM 77.0 °F - 66.2 °F 69% 30.07 in 10.0 mi SSE 5.8 mph - N/A   Clear
7:17 PM 77.0 °F - 68.0 °F 74% 30.07 in 10.0 mi SSE 4.6 mph - N/A   Clear
7:37 PM 77.0 °F - 68.0 °F 74% 30.08 in 10.0 mi South 6.9 mph - N/A   Clear
7:57 PM 75.2 °F - 66.2 °F 73% 30.07 in 10.0 mi South 6.9 mph - N/A   Clear
8:17 PM 75.2 °F - 66.2 °F 73% 30.07 in 10.0 mi Calm Calm - N/A   Clear
8:37 PM 71.6 °F - 68.0 °F 88% 30.09 in 10.0 mi South 3.5 mph - N/A   Clear
8:57 PM 71.6 °F - 66.2 °F 83% 30.09 in 10.0 mi Calm Calm - N/A   Clear
9:17 PM 69.8 °F - 66.2 °F 88% 30.09 in 7.0 mi Calm Calm - N/A   Clear
9:37 PM 69.8 °F - 66.2 °F 88% 30.09 in 7.0 mi SSW 3.5 mph - N/A   Clear
9:57 PM 69.8 °F - 66.2 °F 88% 30.10 in 10.0 mi Calm Calm - N/A   Clear
10:17 PM 68.0 °F - 66.2 °F 94% 30.11 in 10.0 mi Calm Calm - N/A   Clear
10:37 PM 68.0 °F - 64.4 °F 88% 30.11 in 10.0 mi Calm Calm - N/A   Clear
10:57 PM 68.0 °F - 66.2 °F 94% 30.11 in 10.0 mi Calm Calm - N/A   Clear
11:17 PM 68.0 °F - 66.2 °F 94% 30.11 in 10.0 mi Calm Calm - N/A   Clear
11:37 PM 68.0 °F - 66.2 °F 94% 30.11 in 10.0 mi Calm Calm - N/A   Clear
11:57 PM 68.0 °F - 66.2 °F 94% 30.12 in 7.0 mi Calm Calm - N/A   Clear